Location: Unspecified
(0.0000°N, 0.0000°E)
Time: 07:06:39
(UTC+00:00)

Vanguard 2 Rocket - All Passes

Search period start: 25 June 2017 00:00
Search period end: 05 July 2017 00:00
Orbit: 554 x 3328 km, 32.9° (Epoch: 24 June)

Date Brightness Start Highest point End Pass type
(mag) Time Alt. Az. Time Alt. Az. Time Alt. Az.
25 Jun - 06:33:37 10° NW 06:39:07 74° NE 06:48:53 10° ESE daylight
25 Jun - 08:47:08 10° W 08:54:29 33° SSW 09:06:25 10° SE daylight
25 Jun - 11:05:53 10° SW 11:14:20 18° S 11:25:07 10° SSE daylight
25 Jun - 13:26:24 10° SSW 13:38:25 19° S 13:51:10 10° SE daylight
25 Jun - 15:43:56 10° SW 16:01:43 36° SSE 16:16:05 10° E daylight
25 Jun - 18:01:54 10° SW 18:21:14 77° SE 18:33:01 10° ENE visible
25 Jun - 20:23:33 10° WSW 20:36:53 37° NW 20:45:00 10° NNE visible
26 Jun - 05:35:24 10° NNW 05:39:57 39° NE 05:47:03 10° ESE visible
26 Jun - 07:47:31 10° W 07:53:51 43° SSW 08:04:47 10° SE daylight
26 Jun - 10:04:29 10° SW 10:11:57 19° SSW 10:22:08 10° SSE daylight
26 Jun - 12:24:57 10° SSW 12:34:40 17° S 12:45:49 10° SE daylight
26 Jun - 14:42:33 10° SSW 14:58:40 29° SSE 15:13:31 10° ESE daylight
26 Jun - 16:59:41 10° SW 17:19:32 61° SSE 17:33:05 10° ENE daylight
26 Jun - 19:19:41 10° WSW 19:36:38 57° NW 19:46:37 10° NE visible
26 Jun - 21:47:00 10° WNW 21:51:24 13° NW 21:55:03 10° NNW visible
27 Jun - 04:37:55 10° N 04:40:59 18° NE 04:44:51 10° E visible
27 Jun - 06:48:22 10° WNW 06:53:51 61° SSW 07:03:26 10° SE daylight
27 Jun - 09:03:41 10° WSW 09:10:19 22° SSW 09:19:57 10° SSE daylight
27 Jun - 11:23:38 10° SSW 11:31:17 15° S 11:40:32 10° SSE daylight
27 Jun - 13:41:30 10° SSW 13:55:17 23° SSE 14:09:33 10° ESE daylight
27 Jun - 15:57:56 10° SW 16:17:16 48° SSE 16:32:20 10° E daylight
27 Jun - 18:16:28 10° WSW 18:35:49 79° NW 18:47:40 10° NE visible
27 Jun - 20:40:29 10° W 20:51:16 24° NW 20:58:35 10° NNE visible
28 Jun - 05:49:40 10° NW 05:54:24 80° NE 06:02:14 10° ESE daylight
28 Jun - 08:03:29 10° WSW 08:09:22 26° SSW 08:18:25 10° SSE daylight
28 Jun - 10:22:22 10° SW 10:28:33 15° S 10:36:13 10° SSE daylight
28 Jun - 12:40:48 10° SSW 12:51:46 19° SSE 13:04:09 10° SE daylight
28 Jun - 14:56:40 10° SW 15:14:33 38° SSE 15:30:33 10° E daylight
28 Jun - 17:13:55 10° SW 17:34:23 81° SE 17:48:08 10° ENE daylight
28 Jun - 19:35:35 10° WSW 19:50:56 39° NW 20:00:37 10° NNE visible
29 Jun - 04:51:23 10° NNW 04:55:22 38° NE 05:01:04 10° ESE visible
29 Jun - 07:03:47 10° W 07:09:01 34° SSW 07:17:22 10° SE daylight
29 Jun - 09:21:16 10° SW 09:26:32 15° S 09:33:16 10° SSE daylight
29 Jun - 11:40:25 10° SSW 11:48:24 15° S 11:57:47 10° SE daylight
29 Jun - 13:55:53 10° SSW 14:11:33 30° SSE 14:27:27 10° E daylight
29 Jun - 16:12:00 10° SW 16:32:22 64° SE 16:47:52 10° ENE daylight
29 Jun - 18:31:37 10° WSW 18:50:12 57° NW 19:01:58 10° NE visible
29 Jun - 20:58:56 10° WNW 21:06:03 16° NW 21:11:33 10° N visible
30 Jun - 03:53:45 10° N 03:56:26 17° NE 03:59:31 10° E visible
30 Jun - 06:04:34 10° WNW 06:09:12 50° SSW 06:16:40 10° SE daylight
30 Jun - 08:20:29 10° SW 08:25:14 16° SSW 08:31:33 10° SSE daylight
30 Jun - 10:40:17 10° SSW 10:45:26 13° S 10:51:27 10° SSE daylight
30 Jun - 12:55:34 10° SSW 13:08:25 23° SSE 13:22:48 10° ESE daylight
30 Jun - 15:10:41 10° SW 15:29:54 51° SSE 15:46:44 10° ENE daylight
30 Jun - 17:28:32 10° WSW 17:48:55 77° NW 18:02:43 10° NE daylight
30 Jun - 19:52:31 10° W 20:05:26 27° NW 20:14:17 10° NNE visible
01 Jul - 05:05:43 10° NW 05:09:54 90° NE 05:16:09 10° SE visible
01 Jul - 07:20:08 10° WSW 07:24:33 19° SSW 07:30:43 10° SSE daylight
01 Jul - 09:40:17 10° SSW 09:43:06 11° S 09:46:15 10° SSE daylight
01 Jul - 11:55:45 10° SSW 12:05:17 18° SSE 12:16:35 10° SE daylight
01 Jul - 14:09:57 10° SSW 14:27:12 40° SSE 14:44:29 10° E daylight
01 Jul - 16:26:17 10° SW 16:47:04 84° SE 17:02:51 10° ENE daylight
01 Jul - 18:47:33 10° WSW 19:04:35 41° NW 19:15:57 10° NNE visible
02 Jul - 04:07:14 10° NW 04:10:57 40° NE 04:15:38 10° ESE visible
02 Jul - 06:20:14 10° W 06:24:24 25° SSW 06:30:25 10° SSE daylight
02 Jul - 08:39:52 10° SSW 08:41:26 10° S 08:43:07 10° S daylight
02 Jul - 10:56:36 10° S 11:02:23 13° SSE 11:09:07 10° SE daylight
02 Jul - 13:09:46 10° SSW 13:24:25 30° SSE 13:40:50 10° E daylight
02 Jul - 15:24:47 10° SW 15:44:49 67° SE 16:02:13 10° ENE daylight
02 Jul - 17:43:44 10° WSW 18:03:18 57° NW 18:16:58 10° NE daylight
02 Jul - 20:10:49 10° WNW 20:20:23 18° NW 20:27:36 10° N visible
03 Jul - 03:09:15 10° N 03:11:58 17° NE 03:14:48 10° E visible
03 Jul - 05:20:47 10° W 05:24:45 38° SSW 05:30:26 10° SE visible
03 Jul - 07:38:28 10° SSW 07:40:24 11° SSW 07:42:36 10° S daylight
03 Jul - 12:10:08 10° SSW 12:21:39 22° SSE 12:35:32 10° ESE daylight
03 Jul - 14:23:56 10° SW 14:42:19 53° SE 15:00:39 10° ENE daylight
03 Jul - 16:40:58 10° WSW 17:01:34 75° NW 17:17:23 10° NE daylight
03 Jul - 19:04:31 10° W 19:19:14 29° NW 19:29:43 10° NNE visible
04 Jul - 04:21:39 10° WNW 04:25:34 77° SW 04:30:36 10° SE visible
04 Jul - 06:37:18 10° SW 06:39:56 13° SSW 06:43:06 10° S daylight
04 Jul - 11:11:13 10° S 11:19:03 16° SSE 11:28:32 10° SE daylight
04 Jul - 13:23:44 10° SSW 13:39:48 40° SSE 13:57:53 10° E daylight
04 Jul - 15:39:07 10° SW 15:59:26 86° SE 16:17:09 10° NE daylight
04 Jul - 17:59:43 10° W 18:17:49 42° NW 18:30:59 10° NNE visible
04 Jul - 20:30:56 10° NW 20:35:55 12° NNW 20:40:12 10° N visible
